User: anonymous   Login
Location: Haliburton Scout Reserve
(45.0900°N, 78.3200°W)
Time: 22:49:57
(UTC-04:00)
Language:

ZACube-1 - Orbit

View from above orbital plane
View from above orbital plane
View from above satellite
View from above satellite

Ground track
Ground track

The orbit data is extracted from the following two-line orbital elements,

1 39417U 13066B   22138.66519368  .00003185  00000-0  39385-3 0  9998
2 39417  97.6347 111.5148 0058911 140.9568 219.5921 14.82218229458713
Epoch (UTC): 18 May 2022 15:57:52
Eccentricity: 0.0058911
inclination: 97.6347°
perigee height: 581 km
apogee height: 663 km
right ascension of ascending node: 111.5148°
argument of perigee: 140.9568°
revolutions per day: 14.82218229
mean anomaly at epoch: 219.5921°
orbit number at epoch: 45871

The dashed part of the orbit path shows where the satellite is in the earth's shadow,  

DLR